Tracking 29892 objects as of 21-Nov-2024
HD Live streaming from Space Station
objects crossing your sky now

STARLINK-5797

Track STARLINK-5797 now!
10-day predictions
STARLINK-5797 is classified as:


NORAD ID: 55784
Int'l Code: 2023-028AV
Perigee: 577.0 km
Apogee: 581.4 km
Inclination: 70.0 °
Period: 96.1 minutes
Semi major axis: 6950 km
RCS: Unknown
Launch date: March 3, 2023
Source: United States (US)
Launch site: AIR FORCE WESTERN TEST RANGE (AFWTR)
Your satellite tracking list
Your tracking list is empty




NASA's NSSDC Master Catalog

Two Line Element Set (TLE):
1 55784U 23028AV  24325.95721512 -.00003393  00000-0 -27670-3 0  9997
2 55784  69.9986 318.9810 0003111 267.8593  92.2210 14.98327568 96064
Source of the keplerian elements: AFSPC